{"data":{"norad_id":63643,"epoch":"2026-05-24T18:12:09.970272Z","epoch_age_seconds":98939,"freshness":"FRESH","line1":"1 63643U 25083K   26144.75844873  .00017449  00000+0  64194-3 0  9994","line2":"2 63643  42.9972 295.3544 0000929 289.6843  70.3908 15.27588943 61702","mean_motion":15.27588943,"eccentricity":9.29e-5,"inclination_deg":42.9972,"raan_deg":295.3544,"arg_perigee_deg":289.6843,"mean_anomaly_deg":70.3908,"bstar":0.00064194,"rev_number":6170,"period_min":94.2661968456,"perigee_km":482.38491591046,"apogee_km":483.65971931167,"semimajor_km":6861.1593176111,"source":"CELESTRAK","updated_at":"2026-05-25T13:38:20.053861Z"}}